Regional Weather Roundup
Issued by NWS Cleveland, OH

Home | Current Version | Previous Version | Graphics & Text | Print | Product List | Glossary On
Versions: 1 2 3 4 5 6 7 8 9 10 11 12 13 14 15 16 17 18 19 20 21 22 23 24 25 26 27 28 29 30 31 32 33 34 35 36 37 38 39 40 41 42 43 44 45 46 47 48 49 50
000
ASUS41 KCLE 241900
RWRCLE
OHIO REGIONAL WEATHER ROUNDUP
NATIONAL WEATHER SERVICE WILMINGTON, OH
300 PM EDT THU JUL 24 2014

NOTE: "FAIR" INDICATES FEW OR NO CLOUDS BELOW 12,000 FEET WITH NO
SIGNIFICANT WEATHER AND/OR OBSTRUCTIONS TO VISIBILITY.

OHZ001>008-015>018-024>027-034-035-043-044-242000-
   NORTHWEST OHIO

CITY           SKY/WX    TMP DP  RH WIND       PRES   REMARKS
DEFIANCE       PTSUNNY   75  49  39 N7        30.10F
FINDLAY        PTSUNNY   73  49  42 NE12      30.08F
TOLEDO EXPRESS PTSUNNY   73  48  41 N10G17    30.09F
TOLEDO METCALF MOSUNNY   74  48  39 NE8G18    30.10F
LIMA           CLOUDY    71  52  50 NE8       30.09S
$$

OHZ009>014-019>023-028>033-038-089-242000-
   NORTHEAST OHIO

CITY           SKY/WX    TMP DP  RH WIND       PRES   REMARKS
CLE-HOPKINS    MOSUNNY   71  52  50 N16       30.10S
CLE-LAKEFRONT  SUNNY     70  51  51 NE13      30.06F
CUY CO. ARPT   MOSUNNY   72  54  53 N14       30.08S
LORAIN-ELYRIA  MOSUNNY   73  51  46 NE13      30.09S
ASHTABULA      SUNNY     69  49  48 NE9G17    30.08F
AKRON-CANTON   PTSUNNY   72  53  51 N10       30.05S
WOOSTER        NOT AVBL
MANSFIELD      PTSUNNY   72  55  55 N14       30.07S
YOUNGSTOWN     PTSUNNY   72  52  49 N13G20    30.05F
$$

OHZ042-051>053-060>062-070>072-077>081-242000-
  SOUTHWEST OHIO

CITY           SKY/WX    TMP DP  RH WIND       PRES   REMARKS
CINC-COVINGTON PTSUNNY   75  51  43 NE13G21   30.06S
CINC-LUNKEN    PTSUNNY   76  57  51 N13       30.05S
HAMILTON       MOSUNNY   77  57  50 N12       30.07S
DAYTON         NOT AVBL
WRIGHT-PAT AFB MOSUNNY   74  55  51 N7        30.06F
DAYTON GENERAL PTSUNNY   71  55  56 NE9       30.06S
WILMINGTON     PTSUNNY   73  54  51 NE12G20   30.05F
$$

OHZ036-037-039>041-045>050-054>059-063>069-073>076-082>088-242000-
  CENTRAL AND SOUTHEAST OHIO

CITY           SKY/WX    TMP DP  RH WIND       PRES   REMARKS
COLUMBUS       MOSUNNY   76  52  43 N10       30.03S
OSU AIRPORT    PTSUNNY   73  56  54 N12       30.04S
BOLTON FIELD   PTSUNNY   72  55  56 N10G16    30.05S
RICKENBACK AFB NOT AVBL
NEWARK         PTSUNNY   75  54  47 VRB6      30.03F
MARION         SUNNY     73  51  46 N17       30.07S
LANCASTER      MOSUNNY   77  56  48 NE8       30.04S
ZANESVILLE     MOSUNNY   75  55  49 N9        30.03S
NEW PHILLY     PTSUNNY   72  55  55 N9G20     30.03F
$$


USA.gov is the U.S. government's official web portal to all federal, state and local government web resources and services.